When you browse on this site, cookies collect data to enhance your experience and personalize the content and advertising you see.
Visit our Privacy Policy to learn more. By continuing to use the site, you agree to this use of cookies and data.
  • en France
  • Liste des pays
  • À 7 jours
  • Température de l'eau
  • Carte météo
  • Widgets météo
  • user-avatar
    Se connecter

    Météo par heure à Stanovoy Kolodez

    Ce jour, 19 Octobre, Samedi

    Heure Température Précipitation Vent Pression Humidité
    00:00 +9°C° 0 mm 0 m/s 743 mmHg 90%
    01:00 +9°C° 0 mm 0 m/s 743 mmHg 91%
    02:00 +9°C° 0 mm 0 m/s 743 mmHg 91%
    03:00 +9°C° 0 mm 0 m/s 743 mmHg 91%
    04:00 +9°C° 0 mm 0 m/s 743 mmHg 91%
    05:00 +10°C° 0 mm 1 m/s 743 mmHg 92%
    06:00 +10°C° 0 mm 1 m/s 743 mmHg 90%
    07:00 +11°C° 0 mm 1 m/s 744 mmHg 89%
    08:00 +11°C° 0 mm 1 m/s 744 mmHg 88%
    09:00 +12°C° 0 mm 2 m/s 744 mmHg 82%
    10:00 +14°C° 0 mm 2 m/s 744 mmHg 77%
    11:00 +15°C° 0 mm 2 m/s 744 mmHg 71%
    12:00 +15°C° 0 mm 2 m/s 744 mmHg 70%
    13:00 +16°C° 0 mm 2 m/s 744 mmHg 68%
    14:00 +16°C° 0 mm 2 m/s 744 mmHg 66%
    15:00 +15°C° 0 mm 2 m/s 744 mmHg 71%
    16:00 +14°C° 0 mm 2 m/s 744 mmHg 75%
    17:00 +13°C° 0 mm 2 m/s 744 mmHg 80%
    18:00 +13°C° 0 mm 2 m/s 744 mmHg 81%
    19:00 +12°C° 0 mm 2 m/s 744 mmHg 82%
    20:00 +12°C° 0 mm 2 m/s 744 mmHg 83%
    21:00 +12°C° 0 mm 2 m/s 744 mmHg 83%
    22:00 +10°C° 0 mm 2 m/s 744 mmHg 83%
    23:00 +10°C° 0 mm 2 m/s 744 mmHg 83%

    Demain, 20 Octobre, Dimanche

    Heure Température Précipitation Vent Pression Humidité
    00:00 +10°C° 0 mm 2 m/s 744 mmHg 84%
    01:00 +10°C° 0 mm 2 m/s 745 mmHg 84%
    02:00 +10°C° 0 mm 2 m/s 745 mmHg 84%
    03:00 +9°C° 0 mm 2 m/s 745 mmHg 85%
    04:00 +9°C° 0 mm 2 m/s 745 mmHg 86%
    05:00 +9°C° 0 mm 2 m/s 745 mmHg 87%
    06:00 +10°C° 0 mm 2 m/s 745 mmHg 86%
    07:00 +10°C° 0 mm 2 m/s 745 mmHg 84%
    08:00 +11°C° 0 mm 3 m/s 745 mmHg 83%
    09:00 +12°C° 0 mm 3 m/s 745 mmHg 79%
    10:00 +13°C° 0 mm 3 m/s 745 mmHg 75%
    11:00 +16°C° 0 mm 3 m/s 745 mmHg 71%
    12:00 +16°C° 0 mm 3 m/s 745 mmHg 70%
    13:00 +17°C° 0 mm 3 m/s 745 mmHg 69%
    14:00 +17°C° 0 mm 3 m/s 745 mmHg 68%
    15:00 +16°C° 0 mm 3 m/s 745 mmHg 73%
    16:00 +14°C° 0 mm 3 m/s 745 mmHg 77%
    17:00 +13°C° 0 mm 3 m/s 745 mmHg 82%
    18:00 +13°C° 0 mm 3 m/s 745 mmHg 82%
    19:00 +12°C° 0 mm 3 m/s 745 mmHg 83%
    20:00 +12°C° 0 mm 3 m/s 745 mmHg 83%
    21:00 +12°C° 0 mm 3 m/s 745 mmHg 83%
    22:00 +12°C° 0 mm 3 m/s 745 mmHg 83%
    23:00 +11°C° 0 mm 3 m/s 745 mmHg 83%

    Après-demain, 21 Octobre, Lundi

    Heure Température Précipitation Vent Pression Humidité
    00:00 +11°C° 0 mm 3 m/s 745 mmHg 83%
    01:00 +11°C° 0 mm 3 m/s 745 mmHg 83%
    02:00 +11°C° 0 mm 3 m/s 745 mmHg 83%
    03:00 +10°C° 0 mm 3 m/s 745 mmHg 84%
    04:00 +10°C° 0 mm 3 m/s 744 mmHg 85%
    05:00 +9°C° 0 mm 3 m/s 744 mmHg 86%
    06:00 +10°C° 0 mm 3 m/s 744 mmHg 82%
    07:00 +11°C° 0 mm 4 m/s 745 mmHg 79%
    08:00 +11°C° 0 mm 4 m/s 745 mmHg 75%
    09:00 +13°C° 0 mm 4 m/s 745 mmHg 71%
    10:00 +14°C° 0 mm 5 m/s 745 mmHg 66%
    11:00 +15°C° 0 mm 5 m/s 744 mmHg 61%
    12:00 +16°C° 0 mm 5 m/s 744 mmHg 61%
    13:00 +16°C° 0 mm 5 m/s 744 mmHg 60%
    14:00 +16°C° 0 mm 5 m/s 744 mmHg 59%
    15:00 +15°C° 0 mm 5 m/s 744 mmHg 64%
    16:00 +14°C° 0 mm 4 m/s 743 mmHg 68%
    17:00 +13°C° 0 mm 4 m/s 743 mmHg 73%
    18:00 +13°C° 0 mm 4 m/s 743 mmHg 74%
    19:00 +13°C° 0 mm 4 m/s 743 mmHg 75%
    20:00 +12°C° 0 mm 4 m/s 743 mmHg 76%
    21:00 +12°C° 0 mm 4 m/s 743 mmHg 77%
    22:00 +12°C° 0 mm 4 m/s 743 mmHg 77%
    23:00 +11°C° 0 mm 4 m/s 743 mmHg 78%

    22 Octobre, Mardi

    Heure Température Précipitation Vent Pression Humidité
    00:00 +11°C° 0 mm 4 m/s 743 mmHg 78%
    01:00 +11°C° 0 mm 3 m/s 743 mmHg 79%
    02:00 +10°C° 0 mm 3 m/s 743 mmHg 80%
    03:00 +10°C° 0 mm 3 m/s 743 mmHg 80%
    04:00 +10°C° 0 mm 3 m/s 743 mmHg 80%
    05:00 +10°C° 0 mm 3 m/s 742 mmHg 81%
    06:00 +10°C° 0 mm 4 m/s 742 mmHg 78%
    07:00 +11°C° 0 mm 4 m/s 742 mmHg 76%
    08:00 +11°C° 0 mm 4 m/s 742 mmHg 74%
    09:00 +12°C° 0 mm 4 m/s 742 mmHg 71%
    10:00 +13°C° 0 mm 4 m/s 742 mmHg 68%
    11:00 +14°C° 0 mm 4 m/s 742 mmHg 64%
    12:00 +15°C° 0 mm 4 m/s 742 mmHg 64%
    13:00 +15°C° 0 mm 4 m/s 742 mmHg 63%
    14:00 +17°C° 0 mm 4 m/s 742 mmHg 63%
    15:00 +16°C° 0 mm 3 m/s 742 mmHg 67%
    16:00 +14°C° 0 mm 3 m/s 742 mmHg 72%
    17:00 +14°C° 0 mm 2 m/s 742 mmHg 76%
    18:00 +14°C° 0 mm 2 m/s 742 mmHg 78%
    19:00 +13°C° 0 mm 2 m/s 742 mmHg 79%
    20:00 +13°C° 0 mm 2 m/s 742 mmHg 81%
    21:00 +13°C° 0 mm 2 m/s 742 mmHg 83%
    22:00 +12°C° 0 mm 2 m/s 742 mmHg 84%
    23:00 +12°C° 0 mm 2 m/s 742 mmHg 86%

    23 Octobre, Mercredi

    Heure Température Précipitation Vent Pression Humidité
    00:00 +12°C° 0 mm 2 m/s 742 mmHg 88%
    01:00 +11°C° 0 mm 1 m/s 742 mmHg 90%
    02:00 +11°C° 0 mm 1 m/s 742 mmHg 91%
    03:00 +11°C° 0 mm 1 m/s 742 mmHg 92%
    04:00 +10°C° 0 mm 2 m/s 742 mmHg 93%
    05:00 +10°C° 0 mm 2 m/s 743 mmHg 94%
    06:00 +10°C° 0 mm 2 m/s 743 mmHg 93%
    07:00 +10°C° 0 mm 2 m/s 743 mmHg 92%
    08:00 +12°C° 0 mm 2 m/s 743 mmHg 92%
    09:00 +13°C° 0 mm 2 m/s 743 mmHg 87%
    10:00 +14°C° 0 mm 2 m/s 743 mmHg 82%
    11:00 +16°C° 0 mm 3 m/s 743 mmHg 77%
    12:00 +16°C° 0 mm 3 m/s 743 mmHg 75%
    13:00 +17°C° 0 mm 3 m/s 743 mmHg 72%
    14:00 +17°C° 0 mm 3 m/s 743 mmHg 69%
    15:00 +16°C° 0 mm 3 m/s 743 mmHg 74%
    16:00 +14°C° 0 mm 3 m/s 743 mmHg 80%
    17:00 +13°C° 0 mm 3 m/s 743 mmHg 85%
    18:00 +12°C° 0 mm 3 m/s 744 mmHg 87%
    19:00 +11°C° 0 mm 3 m/s 744 mmHg 89%
    20:00 +10°C° 0 mm 3 m/s 744 mmHg 91%
    21:00 +10°C° 0 mm 2 m/s 744 mmHg 90%
    22:00 +9°C° 0 mm 2 m/s 744 mmHg 90%
    23:00 +9°C° 0 mm 2 m/s 744 mmHg 90%

    24 Octobre, Jeudi

    Heure Température Précipitation Vent Pression Humidité
    00:00 +9°C° 0 mm 2 m/s 744 mmHg 91%
    01:00 +9°C° 0 mm 2 m/s 744 mmHg 92%
    02:00 +9°C° 0 mm 2 m/s 745 mmHg 92%
    03:00 +8°C° 0 mm 2 m/s 745 mmHg 93%
    04:00 +8°C° 0 mm 2 m/s 745 mmHg 93%
    05:00 +8°C° 0 mm 2 m/s 745 mmHg 94%
    06:00 +8°C° 0 mm 2 m/s 745 mmHg 92%
    07:00 +9°C° 0 mm 1 m/s 745 mmHg 90%
    08:00 +9°C° 0 mm 1 m/s 745 mmHg 88%
    09:00 +10°C° 0 mm 1 m/s 745 mmHg 82%
    10:00 +11°C° 0 mm 1 m/s 745 mmHg 75%
    11:00 +12°C° 0 mm 2 m/s 746 mmHg 69%
    12:00 +13°C° 0 mm 2 m/s 745 mmHg 66%
    13:00 +13°C° 0 mm 1 m/s 745 mmHg 63%
    14:00 +14°C° 0 mm 1 m/s 745 mmHg 60%
    15:00 +13°C° 0 mm 1 m/s 745 mmHg 64%
    16:00 +12°C° 0 mm 1 m/s 745 mmHg 68%
    17:00 +10°C° 0 mm 0 m/s 745 mmHg 72%
    18:00 +9°C° 0 mm 0 m/s 745 mmHg 73%
    19:00 +9°C° 0 mm 0 m/s 745 mmHg 74%
    20:00 +9°C° 0 mm 0 m/s 745 mmHg 76%
    21:00 +10°C° 0 mm 1 m/s 745 mmHg 78%
    22:00 +9°C° 0 mm 1 m/s 745 mmHg 80%
    23:00 +8°C° 0 mm 2 m/s 744 mmHg 82%
    Voir plus